Погода в Холмечах

Россия / Брянская область     52°30′11″N   34°12′42″E
темп.,
°C
ветер,
м/с
пор.,
м/с
влажн.,
%
обл.,
%
осадки,
мм/ч
давл.,
гПа
погр.,
м
8 марта, пн
пн800:00−2зюз41081100 0.8 1004422
03:00−3зюз41086100 0.8 1004361
06:00−4з31190100 0.0 1004455
09:00−3зсз498785 0.0 1005894
12:00−2зсз487372 0.1 10061142
15:00−1зсз477171 0.4 10061247
18:00−3зсз3781100 0.3 1008406
21:00−5ссз2692100 0.4 1010270
9 марта, вт
вт900:00−9сз259352 0.0 1011137
03:00−8сз379364 0.1 1013370
06:00−10ссз379498 0.1 1014281
09:00−10ссз369098 0.1 1017357
12:00−7ссз467595 0.0 1018807
15:00−6сз467082 0.0 1020989
18:00−8сз368066 0.1 1020627
21:00−10ссз278977 0.1 1023248
10 марта, ср
ср1000:00−12сз24924 0.0 1025126
03:00−13сз22942 0.0 102655
06:00−13зсз11951 0.0 102625
09:00−10з128537 0.0 1027224
12:00−7юз348799 0.2 1027498
15:00−5зсз248699 1.1 1027472
18:00−9всв5993100 1.6 1027361
21:00−12всв4991100 2.3 1029404
11 марта, чт
чт1100:00−16в388389 0.1 1031282
03:00−20в368747 0.1 1032168
06:00−21в26850 0.0 1033139
09:00−19вюв25763 0.0 1034196
12:00−13вюв35690 0.0 1033337
15:00−10юв35640 0.0 1032458
18:00−13юв36810 0.0 1031281
21:00−16юв38900 0.0 1031184
12 марта, пт
пт1200:00−15ююв498411 0.0 1031253
03:00−13ююв4118049 0.0 1028315
06:00−11ююв5147899 0.0 1026433
09:00−8ю7157399 0.0 1023636
12:00−4ю81571100 0.0 1021941
15:00−3ю91789100 0.6 10181214
18:00−2ю81792100 1.9 10161329
21:00−2ю81693100 3.4 10151081